Miscellaneous Local Product
Issued by NWS Hastings, NE

Home | Current Version | Previous Version | Graphics & Text | Print | Product List | Glossary On
Versions: 1 2 3 4 5 6 7 8 9 10 11 12 13 14 15 16 17 18 19 20 21 22 23 24 25 26 27 28 29 30 31 32 33 34 35 36 37 38 39 40 41 42 43 44 45 46 47 48 49 50
000
AXUS43 KGID 010102
MISGRI

GID CWA HOURLY WEATHER ROUNDUP
NATIONAL WEATHER SERVICE HASTINGS NE
800 PM CDT FRI SEP 30 2016

NOTE: "FAIR" INDICATES FEW OR NO CLOUDS BELOW 12,000 FEET WITH NO
SIGNIFICANT WEATHER AND/OR OBSTRUCTIONS TO VISIBILITY.

...SOUTH CENTRAL NEBRASKA...

CITY           SKY/WX    TMP DP  RH WIND       PRES   REMARKS
GRAND ISLAND   MOCLDY    60  47  61 S3        30.16S
HASTINGS       MOCLDY    64  44  48 CALM      30.16S
KEARNEY        PTCLDY    59  41  51 SE7       30.15S
ORD            MOCLDY    57  44  62 CALM      30.15S
YORK           MOCLDY    57  46  67 E6        30.15F
AURORA         PTCLDY    58  47  67 E6        30.15F
LEXINGTON      MOCLDY    62  47  57 SE5       30.15S
HOLDREGE       MOCLDY    59  44  58 SE5       30.15F
HEBRON         MOCLDY    60  49  65 CALM      30.15S

...NEBRASKA PANHANDLE...

CITY           SKY/WX    TMP DP  RH WIND       PRES   REMARKS
CHADRON        MOCLDY    69  48  47 SE12      30.04F
ALLIANCE       CLOUDY    64  47  53 S12       30.09F
SCOTTSBLUFF    CLOUDY    60  48  64 E8        30.10F
SIDNEY         CLOUDY    63  47  55 SE8       30.15F

...WESTERN AND NORTH CENTRAL NEBRASKA...

CITY           SKY/WX    TMP DP  RH WIND       PRES   REMARKS
VALENTINE      PTCLDY    62  45  53 SE8       30.11F
AINSWORTH      PTCLDY    61  47  59 SE8       30.13F
ONEILL         MOCLDY    61  44  52 SE5       30.16S
BROKEN BOW     PTCLDY    60  46  59 SE7       30.15S
IMPERIAL       CLOUDY    63  46  54 E7        30.14F
NORTH PLATTE   CLOUDY    59  47  64 E5        30.15S
MCCOOK         CLOUDY    63  47  55 E7        30.15R

...EASTERN NEBRASKA...

CITY           SKY/WX    TMP DP  RH WIND       PRES   REMARKS
NORFOLK        PTCLDY    60  43  53 CALM      30.15F
SO SIOUX CITY  CLOUDY    63  49  60 E3        30.15F
TEKAMAH        CLEAR     58  48  69 CALM      30.14F
COLUMBUS       CLOUDY    57  43  58 CALM      30.16F
ALBION         CLOUDY    59  46  62 SE3       30.15F
OMAHA EPPLEY   PTCLDY    64  52  64 E7        30.14S
OFFUTT AFB     PTCLDY    61  51  70 NE6       30.13S
MILLARD        CLOUDY    60  52  74 CALM      30.14S
LINCOLN        PTCLDY    59  50  72 N5        30.15F
NEBRASKA CITY  CLOUDY    63  41  45 NE5       30.14S
BEATRICE       CLOUDY    63  48  59 NE3       30.14F
FALLS CITY     CLOUDY    64  47  53 CALM      30.12F

...NORTHERN KANSAS...

CITY           SKY/WX    TMP DP  RH WIND       PRES   REMARKS
GOODLAND       CLEAR     65  46  50 E9        30.12F
HILL CITY      CLEAR     58  49  72 E6        30.15R
NORTON         CLEAR     59  43  55 E3        30.14S
PHILLIPSBURG   CLEAR     61  46  59 E5        30.15S
SMITH CENTER   CLEAR     61  48  63 CALM      30.15S
BELOIT         CLEAR     59  48  67 CALM      30.13S
HAYS           CLEAR     63  39  42 E7        30.13F
RUSSELL        PTCLDY    62  47  57 SE10      30.12F
CONCORDIA      PTCLDY    62  50  64 SE5       30.13F
SALINA         PTCLDY    66  49  54 CALM      30.13F
TOPEKA         CLOUDY    61  54  77 CALM      30.11F



USA.gov is the U.S. government's official web portal to all federal, state and local government web resources and services.